When you browse on this site, cookies collect data to enhance your experience and personalize the content and advertising you see.
Visit our Privacy Policy to learn more. By continuing to use the site, you agree to this use of cookies and data.
  • In Slovakia
  • List of Countries
  • For 7 days
  • Water Temperature
  • Satellite Maps
  • Weather Map
  • Weather Widgets
  • user-avatar
    Login

    Hourly Weather Lezhe

    Today, 9 December, Sunday

    Time Temperature Precipitation Wind Pressure Humidity
    00:00 +7°C° 1.1 mm 4 mps 734 mmHg 88%
    01:00 +7°C° 0 mm 3 mps 734 mmHg 89%
    02:00 +7°C° 0.3 mm 3 mps 734 mmHg 88%
    03:00 +7°C° 0.3 mm 3 mps 734 mmHg 87%
    04:00 +5°C° 0.3 mm 3 mps 734 mmHg 86%
    05:00 +6°C° 0 mm 2 mps 734 mmHg 85%
    06:00 +6°C° 0 mm 2 mps 735 mmHg 84%
    07:00 +5°C° 0 mm 2 mps 735 mmHg 84%
    08:00 +7°C° 0 mm 2 mps 734 mmHg 80%
    09:00 +9°C° 0 mm 1 mps 734 mmHg 76%
    10:00 +10°C° 0 mm 1 mps 734 mmHg 72%
    11:00 +11°C° 0 mm 1 mps 734 mmHg 72%
    12:00 +10°C° 0 mm 2 mps 733 mmHg 71%
    13:00 +12°C° 0 mm 2 mps 733 mmHg 70%
    14:00 +10°C° 0 mm 2 mps 733 mmHg 75%
    15:00 +9°C° 0 mm 2 mps 733 mmHg 80%
    16:00 +8°C° 0 mm 2 mps 732 mmHg 85%
    17:00 +8°C° 0 mm 2 mps 732 mmHg 87%
    18:00 +8°C° 0 mm 3 mps 732 mmHg 88%
    19:00 +7°C° 0 mm 3 mps 732 mmHg 90%
    20:00 +8°C° 0.2 mm 3 mps 732 mmHg 89%
    21:00 +8°C° 0.2 mm 3 mps 731 mmHg 89%
    22:00 +7°C° 0.2 mm 4 mps 730 mmHg 88%
    23:00 +8°C° 1 mm 3 mps 730 mmHg 88%

    Tomorrow, 10 December, Monday

    Time Temperature Precipitation Wind Pressure Humidity
    00:00 +8°C° 1 mm 3 mps 730 mmHg 89%
    01:00 +8°C° 1 mm 3 mps 729 mmHg 89%
    02:00 +8°C° 1.2 mm 3 mps 729 mmHg 90%
    03:00 +8°C° 1.2 mm 3 mps 729 mmHg 91%
    04:00 +8°C° 1.2 mm 3 mps 729 mmHg 92%
    05:00 +6°C° 0.7 mm 4 mps 729 mmHg 90%
    06:00 +6°C° 0.7 mm 4 mps 730 mmHg 88%
    07:00 +6°C° 0.7 mm 4 mps 730 mmHg 86%
    08:00 +6°C° 0 mm 4 mps 730 mmHg 82%
    09:00 +7°C° 0 mm 4 mps 731 mmHg 78%
    10:00 +9°C° 0 mm 3 mps 732 mmHg 74%
    11:00 +9°C° 0 mm 3 mps 732 mmHg 70%
    12:00 +10°C° 0 mm 3 mps 732 mmHg 67%
    13:00 +10°C° 0 mm 3 mps 732 mmHg 63%
    14:00 +10°C° 0 mm 3 mps 732 mmHg 66%
    15:00 +9°C° 0 mm 3 mps 732 mmHg 70%
    16:00 +8°C° 0 mm 3 mps 733 mmHg 73%
    17:00 +7°C° 0 mm 3 mps 733 mmHg 75%
    18:00 +5°C° 0 mm 3 mps 733 mmHg 76%
    19:00 +4°C° 0 mm 3 mps 734 mmHg 78%
    20:00 +4°C° 0 mm 3 mps 734 mmHg 78%
    21:00 +3°C° 0 mm 3 mps 734 mmHg 78%
    22:00 +3°C° 0 mm 3 mps 735 mmHg 78%
    23:00 +3°C° 0 mm 4 mps 735 mmHg 77%

    Day after tomorrow, 11 December, Tuesday

    Time Temperature Precipitation Wind Pressure Humidity
    00:00 +1°C° 0 mm 4 mps 735 mmHg 77%
    01:00 +1°C° 0 mm 4 mps 736 mmHg 77%
    02:00 +1°C° 0 mm 4 mps 735 mmHg 76%
    03:00 0°C° 0 mm 4 mps 735 mmHg 75%
    04:00 +1°C° 0 mm 3 mps 735 mmHg 74%
    05:00 +1°C° 0 mm 3 mps 736 mmHg 73%
    06:00 +1°C° 0 mm 3 mps 736 mmHg 71%
    07:00 0°C° 0 mm 3 mps 736 mmHg 70%
    08:00 +2°C° 0 mm 3 mps 736 mmHg 64%
    09:00 +3°C° 0 mm 3 mps 737 mmHg 58%
    10:00 +4°C° 0 mm 3 mps 737 mmHg 52%
    11:00 +5°C° 0 mm 3 mps 737 mmHg 49%
    12:00 +5°C° 0 mm 3 mps 737 mmHg 47%
    13:00 +7°C° 0 mm 2 mps 736 mmHg 44%
    14:00 +6°C° 0 mm 2 mps 736 mmHg 48%
    15:00 +5°C° 0 mm 2 mps 737 mmHg 52%
    16:00 +4°C° 0 mm 2 mps 737 mmHg 56%
    17:00 +4°C° 0 mm 2 mps 737 mmHg 57%
    18:00 +3°C° 0 mm 2 mps 737 mmHg 59%
    19:00 +3°C° 0 mm 2 mps 738 mmHg 60%
    20:00 +3°C° 0 mm 2 mps 738 mmHg 61%
    21:00 +3°C° 0 mm 2 mps 738 mmHg 61%
    22:00 +3°C° 0 mm 2 mps 738 mmHg 62%
    23:00 +3°C° 0 mm 2 mps 738 mmHg 63%

    12 December, Wednesday

    Time Temperature Precipitation Wind Pressure Humidity
    00:00 +2°C° 0 mm 2 mps 739 mmHg 64%
    01:00 +2°C° 0 mm 2 mps 739 mmHg 65%
    02:00 +2°C° 0 mm 2 mps 739 mmHg 65%
    03:00 +1°C° 0 mm 2 mps 739 mmHg 66%
    04:00 +1°C° 0 mm 2 mps 739 mmHg 66%
    05:00 +1°C° 0 mm 2 mps 739 mmHg 65%
    06:00 +1°C° 0 mm 2 mps 740 mmHg 64%
    07:00 -1°C° 0 mm 2 mps 740 mmHg 64%
    08:00 +2°C° 0 mm 2 mps 740 mmHg 58%
    09:00 +4°C° 0 mm 1 mps 740 mmHg 52%
    10:00 +6°C° 0 mm 1 mps 740 mmHg 45%
    11:00 +6°C° 0 mm 1 mps 740 mmHg 43%
    12:00 +7°C° 0 mm 1 mps 740 mmHg 41%
    13:00 +7°C° 0 mm 1 mps 740 mmHg 39%
    14:00 +6°C° 0 mm 1 mps 740 mmHg 43%
    15:00 +5°C° 0 mm 1 mps 740 mmHg 47%
    16:00 +4°C° 0 mm 1 mps 740 mmHg 51%
    17:00 +4°C° 0 mm 1 mps 740 mmHg 52%
    18:00 +3°C° 0 mm 1 mps 740 mmHg 52%
    19:00 +2°C° 0 mm 2 mps 740 mmHg 53%
    20:00 +2°C° 0 mm 2 mps 740 mmHg 52%
    21:00 +2°C° 0 mm 2 mps 740 mmHg 51%
    22:00 +2°C° 0 mm 2 mps 740 mmHg 50%
    23:00 +2°C° 0 mm 2 mps 740 mmHg 49%

    13 December, Thursday

    Time Temperature Precipitation Wind Pressure Humidity
    00:00 +2°C° 0 mm 2 mps 740 mmHg 48%
    01:00 +3°C° 0 mm 2 mps 740 mmHg 46%
    02:00 +3°C° 0 mm 2 mps 740 mmHg 45%
    03:00 +3°C° 0 mm 2 mps 739 mmHg 44%
    04:00 +4°C° 0 mm 2 mps 739 mmHg 43%
    05:00 +4°C° 0 mm 2 mps 739 mmHg 44%
    06:00 +3°C° 0 mm 3 mps 739 mmHg 44%
    07:00 +3°C° 0 mm 3 mps 739 mmHg 45%
    08:00 +3°C° 0 mm 3 mps 739 mmHg 46%
    09:00 +4°C° 0 mm 3 mps 739 mmHg 46%
    10:00 +5°C° 0 mm 3 mps 739 mmHg 47%
    11:00 +5°C° 0.1 mm 3 mps 738 mmHg 52%
    12:00 +5°C° 0.1 mm 3 mps 737 mmHg 56%
    13:00 +5°C° 0.1 mm 3 mps 737 mmHg 61%
    14:00 +5°C° 0.4 mm 3 mps 737 mmHg 67%
    15:00 +5°C° 0.4 mm 3 mps 737 mmHg 72%
    16:00 +5°C° 0.4 mm 2 mps 736 mmHg 78%
    17:00 +5°C° 0.8 mm 2 mps 736 mmHg 81%
    18:00 +4°C° 0.8 mm 3 mps 736 mmHg 83%
    19:00 +4°C° 0.8 mm 3 mps 736 mmHg 86%
    20:00 +4°C° 0.5 mm 3 mps 736 mmHg 87%
    21:00 +5°C° 0.5 mm 2 mps 736 mmHg 88%
    22:00 +5°C° 0.5 mm 2 mps 736 mmHg 89%
    23:00 +6°C° 0.6 mm 2 mps 736 mmHg 90%

    14 December, Friday

    Time Temperature Precipitation Wind Pressure Humidity
    00:00 +6°C° 0.6 mm 2 mps 736 mmHg 91%
    01:00 +6°C° 0.6 mm 2 mps 735 mmHg 93%
    02:00 +6°C° 1.1 mm 2 mps 735 mmHg 93%
    03:00 +6°C° 1.1 mm 2 mps 734 mmHg 93%
    04:00 +5°C° 1.1 mm 3 mps 734 mmHg 93%
    05:00 +5°C° 1.8 mm 3 mps 733 mmHg 93%
    06:00 +5°C° 1.8 mm 3 mps 733 mmHg 93%
    07:00 +5°C° 1.8 mm 4 mps 733 mmHg 93%
    08:00 +6°C° 2.3 mm 4 mps 733 mmHg 93%
    09:00 +6°C° 2.3 mm 4 mps 732 mmHg 94%
    10:00 +6°C° 2.3 mm 4 mps 732 mmHg 94%
    11:00 +6°C° 2.5 mm 4 mps 732 mmHg 94%
    12:00 +7°C° 2.5 mm 3 mps 731 mmHg 94%
    13:00 +7°C° 2.5 mm 3 mps 731 mmHg 94%
    14:00 +7°C° 2.1 mm 3 mps 731 mmHg 93%
    15:00 +7°C° 2.1 mm 3 mps 730 mmHg 92%
    16:00 +5°C° 2.1 mm 3 mps 730 mmHg 92%
    17:00 +5°C° 1 mm 3 mps 731 mmHg 91%
    18:00 +5°C° 1 mm 3 mps 731 mmHg 89%
    19:00 +4°C° 1 mm 4 mps 731 mmHg 88%
    20:00 +4°C° 0.2 mm 4 mps 731 mmHg 88%
    21:00 +4°C° 0.2 mm 4 mps 732 mmHg 87%
    22:00 +4°C° 0.2 mm 4 mps 732 mmHg 86%
    23:00 +3°C° 0 mm 4 mps 732 mmHg 86%
    Show more